Location: Sungai Dangang
(2.7500°N, 113.8333°E)
Time: 04:43:29
(UTC+00:00)

Aureole 3 - Pass Details

Date: 16 May 2021
Orbit: 380 x 1230 km, 82.5° (Epoch: 16 June)

Event Time Altitude Azimuth Distance (km) Brightness Sun altitude
Rises 20:55:44 0° 8° (N) 2,271 6.9 -19.1°
Reaches altitude 10° 20:57:48 10° 17° (NNE) 1,394 5.9 -18.6°
Maximum altitude 21:00:32 35° 86° (E) 633 4.2 -18.0°
Drops below altitude 10° 21:03:21 10° 155° (SSE) 1,438 5.5 -17.3°
Sets 21:05:31 0° 164° (SSE) 2,357 6.5 -16.8°
